Battle Mountain, Nevada, United States (89820)
Lat: 40.64N, Lon: 116.93W
Wx Zone: NVZ036
Local Info
Past Weather Observations for Saturday, May 21, 2016

NOTE: This archive is for the closest National Weather Service station to Battle Mountain. Information may differ from the station used for current weather conditions.

Click here for Long-term Archive

Time Weather Temperature Dewpoint Humidity Pressure Winds Precip Visibility
23:56
Partly Cloudy
41°F / 5°C 28°F / -2°C 61% 30.01 in
(1016 mb)
Variable 3.5 mph
(Variable 6 kph)
- 10SM
22:56
Partly Cloudy
45°F / 7°C 28°F / -2°C 53% 29.98 in
(1015 mb)
SSW 9.2 mph
(SSW 15 kph)
- 10SM
21:56
Clear
39°F / 4°C 27°F / -3°C 61% 29.98 in
(1015 mb)
WNW 5.8 mph
(WNW 9 kph)
- 10SM
20:56
Clear
43°F / 6°C 27°F / -3°C 53% 29.95 in
(1014 mb)
W 8.1 mph
(W 13 kph)
- 10SM
19:56
Clear
43°F / 6°C 23°F / -5°C 46% 29.92 in
(1013 mb)
SSW 5.8 mph
(SSW 9 kph)
- 10SM
18:56
Clear
50°F / 10°C 23°F / -5°C 35% 29.89 in
(1012 mb)
SSW 5.8 mph
(SSW 9 kph)
- 10SM
17:56
Mostly Cloudy
57°F / 14°C 19°F / -7°C 23% 29.89 in
(1012 mb)
NW 9.2 mph
(NW 15 kph)
- 10SM
16:56
Clear
57°F / 14°C 19°F / -7°C 23% 29.89 in
(1012 mb)
W 15 mph
(W 24 kph)
- 10SM
15:56
Partly Cloudy
61°F / 16°C 21°F / -6°C 22% 29.89 in
(1012 mb)
SSW 8.1 mph
(SSW 13 kph)
- 10SM
14:56
Mostly Cloudy
57°F / 14°C 21°F / -6°C 25% 29.89 in
(1012 mb)
SSW 10.4 mph
(SSW 17 kph)
- 10SM
13:56
Overcast
57°F / 14°C 23°F / -5°C 27% 29.89 in
(1012 mb)
SSW 12.7 mph
(SSW 20 kph)
- 10SM
12:56
Mostly Cloudy
55°F / 13°C 25°F / -4°C 31% 29.89 in
(1012 mb)
SSW 8.1 mph
(SSW 13 kph)
- 10SM
11:56
Mostly Cloudy
54°F / 12°C 28°F / -2°C 38% 29.89 in
(1012 mb)
SSW 11.5 mph
(SSW 19 kph)
- 10SM
10:56
Overcast
48°F / 9°C 32°F / 0°C 54% 29.92 in
(1013 mb)
SSE 8.1 mph
(SSE 13 kph)
0.00 in
(0.00 mm)
10SM
09:56
Overcast
50°F / 10°C 27°F / -3°C 40% 29.89 in
(1012 mb)
SW 13.8 mph
(SW 22 kph)
- 10SM
08:56
Overcast
48°F / 9°C 30°F / -1°C 50% 29.89 in
(1012 mb)
SW 10.4 mph
(SW 17 kph)
- 10SM
07:56
Overcast
45°F / 7°C 30°F / -1°C 57% 29.89 in
(1012 mb)
SSE 9.2 mph
(SSE 15 kph)
- 10SM
06:56
Overcast
41°F / 5°C 34°F / 1°C 76% 29.89 in
(1012 mb)
SSE 11.5 mph
(SSE 19 kph)
- 10SM
05:56
Overcast
39°F / 4°C 34°F / 1°C 81% 29.86 in
(1011 mb)
S 6.9 mph
(S 11 kph)
- 10SM
04:56
Overcast
37°F / 3°C 36°F / 2°C 93% 29.86 in
(1011 mb)
S 5.8 mph
(S 9 kph)
0.02 in
(0.51 mm)
10SM
04:37
Overcast
Light Rain
37°F / 3°C 34°F / 1°C 87% 29.83 in
(1010 mb)
SSE 9.2 mph
(SSE 15 kph)
0.02 in
(0.51 mm)
10SM
04:26
Overcast
Light Rain
37°F / 3°C 34°F / 1°C 87% 29.83 in
(1010 mb)
SSE 8.1 mph
(SSE 13 kph)
0.02 in
(0.51 mm)
10SM
03:56
Overcast
Light Rain
39°F / 4°C 30°F / -1°C 70% 29.83 in
(1010 mb)
SSW 16.1 mph
(SSW 26 kph)
0.00 in
(0.00 mm)
10SM
02:56
Overcast
39°F / 4°C 25°F / -4°C 56% 29.8 in
(1009 mb)
S 8.1 mph
(S 13 kph)
- 10SM
01:56
Mostly Cloudy
37°F / 3°C 27°F / -3°C 65% 29.8 in
(1009 mb)
S 8.1 mph
(S 13 kph)
- 10SM
00:56
Partly Cloudy
37°F / 3°C 25°F / -4°C 60% 29.8 in
(1009 mb)
SE 4.6 mph
(SE 7 kph)
- 10SM
Time Weather Temperature Dewpoint Humidity Pressure Winds Precip Visibility


Weather for websites

WeatherForYou.com, LLC is not responsible for any damages or problems caused by this service. Current weather conditions are obtained from the closest station including government and personal stations which may have varying degrees of accuracy. Weather forecasts are derived from the NOAA NDFD. Like all things, this site belongs to Jesus Christ... He just trusts us to maintain it. If you have any questions or comments email webmaster@weatherforyou.com

Copyright © 2016, WeatherForYou.com LLC. All rights reserved.